Weather Roundup
Issued by NWS

Home | Current Version | Previous Version | Graphics & Text | Print | Product List | Glossary Off
Versions: 1 2 3 4 5 6 7 8 9 10 11 12 13 14 15 16 17 18 19 20 21 22 23 24 25 26 27 28 29 30 31 32 33 34 35 36 37 38 39 40 41 42 43 44 45 46 47 48 49 50

000
NZUS93 KARX 212210
HRRWXR

CURRENT HOURLY OBSERVATIONS ACROSS
MUCH OF THE UPPER MISSISSIPPI VALLEY
NATIONAL WEATHER SERVICE LA CROSSE WI
400 PM CST SUN DEC 21 2014


...SOUTHEAST MINNESOTA...


CITY           SKY/WX    TMP DP  RH WIND       PRES   REMARKS
ROCHESTER      CLOUDY    36  35  96 S21       29.76F FOG     WCI  25
ROCHESTER/MAYO CLOUDY    37  36  96 S13G23    29.77S WCI  28
WINONA         CLOUDY    37  34  87 S8G16     29.83F WCI  31
AUSTIN         CLOUDY    37  36  93 S16G26    29.75S FOG     WCI  28
ALBERT LEA     CLOUDY    37  37 100 S13G21    29.73S FOG     WCI  29
DODGE CENTER   CLOUDY    36  36 100 S17G24    29.75S FOG     WCI  25
PRESTON        CLOUDY    35  34  96 S22G28    29.80F FOG     WCI  23
OWATONNA       CLOUDY    37  36  93 S13       29.75S FOG     WCI  29
FARIBAULT      CLOUDY    36  36 100 S8G17     29.75S FOG     WCI  29
$$

...ELSEWHERE IN MINNESOTA...


CITY           SKY/WX    TMP DP  RH WIND       PRES   REMARKS
MINNEAPOLIS    LGT RAIN  36  34  92 S9        29.75S FOG     WCI  29
INTNL FALLS    CLOUDY    31  29  92 S6        29.69S FOG     WCI  25
DULUTH         FOG       32  30  92 SE12      29.73F VSB 3/4 WCI  23
RED WING       DRIZZLE   37  36  93 SE6       29.78S WCI  33
REDWOOD FALLS  FOG       36  35  96 SE12      29.66S VSB 1   WCI  28
MANKATO        CLOUDY    37  34  87 S10       29.72S VSB 1   WCI  30
WORTHINGTON    CLOUDY    37 -11  12 S16G22    29.64F WCI  28
FAIRMONT       CLOUDY    37  34  87 S17       29.70R WCI  28
$$

...SOUTHWEST WISCONSIN...


CITY           SKY/WX    TMP DP  RH WIND       PRES   REMARKS
LA CROSSE      CLOUDY    39  35  86 S15G23    29.86F FOG     WCI  31
PRAIRIE DU CHI CLOUDY    39  33  81 SE12      29.90S WCI  31
BOSCOBEL       CLOUDY    39  34  82 SE7       29.92F HAZE    WCI  34
LONE ROCK      CLOUDY    41  33  73 S9        29.95S HAZE
PLATTEVILLE    CLOUDY    36  34  92 SE15      29.94F WCI  27
FORT MC COY    CLOUDY    37  33  87 S12       29.90S FOG     WCI  29
CAMP DOUGLAS   CLOUDY    36  36 100 SE8       29.90F WCI  29
VIROQUA        CLOUDY    36  36 100 S13G21    29.87S WCI  27
WIS DELLS      CLOUDY    35  32  90 S12G18    29.94S FOG     WCI  27
$$

...ELSEWHERE IN WISCONSIN...


CITY           SKY/WX    TMP DP  RH WIND       PRES   REMARKS
MILWAUKEE      CLOUDY    36  28  73 S10       30.06F WCI  28
MADISON        CLOUDY    36  31  82 S17       29.97F WCI  26
GREEN BAY      CLOUDY    36  32  85 S13       30.01S FOG     WCI  27
EAU CLAIRE     LGT RAIN  36  34  92 S12       29.80F FOG     WCI  28
BLACK RVR FLS  CLOUDY    37  37  97 S7        29.87S FOG     WCI  32
MEDFORD        CLOUDY    32  32 100 S15       29.85F FOG     WCI  22
WAUSAU         CLOUDY    33  32  96 S15       29.89S FOG     WCI  23
WIS RAPIDS     CLOUDY    35  31  85 SE7       29.93F FOG     WCI  29
MARSHFIELD     FOG       34  32  92 S15       29.88S VSB 1   WCI  24
RICE LAKE      LGT SNOW  33  32  96 SE8       29.81S VSB 1   WCI  26
$$

...NORTHEAST IOWA...


CITY           SKY/WX    TMP DP  RH WIND       PRES   REMARKS
DECORAH        CLOUDY    37  36  93 S12       29.84F FOG     WCI  30
MASON CITY     MIX PCPN  37  35  92 S18       29.78F FOG     WCI  27
CHARLES CITY   CLOUDY    37  37 100 S16       29.82F FOG     WCI  28
OELWEIN        CLOUDY    37  36  93 S17       29.86S FOG     WCI  28
$$

...ELSEWHERE IN IOWA...


CITY           SKY/WX    TMP DP  RH WIND       PRES   REMARKS
DES MOINES     CLOUDY    42  37  82 S15       29.82F
IOWA CITY      CLOUDY    41  36  82 SE15      29.93S
FORT DODGE     CLOUDY    39  36  87 S13G22    29.76F WCI  32
$$

...NORTHERN ILLINOIS...


CITY           SKY/WX    TMP DP  RH WIND       PRES   REMARKS
CHICAGO-OHARE  CLOUDY    36  29  75 S10       30.08S WCI  28
CHICAGO-MIDWAY CLOUDY    38  29  70 S13       30.09F WCI  30
MOLINE         CLOUDY    39  32  76 SE13      29.96F WCI  31
ROCKFORD       CLOUDY    37  31  78 S15       30.04F WCI  28
PEORIA         CLOUDY    39  30  70 S10       30.04S WCI  32
$$

NOTE: "FAIR" INDICATES FEW OR NO CLOUDS BELOW 12,000 FEET WITH NO
SIGNIFICANT WEATHER AND/OR OBSTRUCTIONS TO VISIBILITY. WIND
SPEEDS ARE IN MILES-PER-HOUR.



USA.gov is the U.S. government's official web portal to all federal, state and local government web resources and services.